Location: Unspecified
(0.0000°N, 0.0000°E)
Time: 14:25:42
(UTC+00:00)

Altair - Pass Details

Date: 01 November 2021
Orbit: 1502 x 1682 km, 47.2° (Epoch: 26 November)

Event Time Altitude Azimuth Distance (km) Brightness Sun altitude
Rises 20:38:04 0° 212° (SSW) 4,722 10.6 -41.9°
Reaches altitude 10° 20:41:14 10° 209° (SSW) 3,716 9.9 -42.6°
Enters shadow 20:46:36 38° 192° (SSW) 2,183 8.3 -43.9°
Maximum altitude 20:50:24 61° 130° (SE) 1,678 - -44.7°
Drops below altitude 10° 20:59:22 10° 51° (NE) 3,643 - -46.8°
Sets 21:02:25 0° 48° (NE) 4,624 - -47.5°
